This is the latest recevied weather packets stored in our database for station/object EA1IRT-1. If no packets are shown the sender has not sent any weather packets the latest 1 day(s).
| Time | Temp. | Humidity | Pressure | Rain* | Wind** | Luminosity | Snow |
|---|---|---|---|---|---|---|---|
| 1777746202 | 15° C | 100% | 1014.3 hPa | - | - | - | - |
| 1777745295 | 15° C | 100% | 1014.6 hPa | - | - | - | - |
| 1777744395 | 15.56° C | 100% | 1014.7 hPa | - | - | - | - |
| 1777743495 | 15.56° C | 100% | 1014.7 hPa | - | - | - | - |
| 1777742595 | 16.11° C | 100% | 1014.7 hPa | - | - | - | - |
| 1777741695 | 16.11° C | 100% | 1014.7 hPa | - | - | - | - |
| 1777740770 | 16.11° C | 100% | 1014.9 hPa | - | - | - | - |
| 1777739846 | 16.11° C | 100% | 1014.8 hPa | - | - | - | - |
| 1777738946 | 16.11° C | 100% | 1015 hPa | - | - | - | - |
| 1777738052 | 15.56° C | 100% | 1014.9 hPa | - | - | - | - |
| 1777737146 | 15.56° C | 99% | 1015 hPa | - | - | - | - |
| 1777736252 | 15.56° C | 99% | 1014.9 hPa | - | - | - | - |
| 1777735345 | 15.56° C | 97% | 1015 hPa | - | - | - | - |
| 1777734452 | 15.56° C | 97% | 1015 hPa | - | - | - | - |
| 1777733545 | 15.56° C | 97% | 1015 hPa | - | - | - | - |
| 1777732645 | 15.56° C | 95% | 1015.2 hPa | - | - | - | - |
| 1777731745 | 16.11° C | 93% | 1015.4 hPa | - | - | - | - |
| 1777730852 | 16.67° C | 94% | 1015.6 hPa | - | - | - | - |
| 1777729927 | 16.67° C | 87% | 1015.4 hPa | - | - | - | - |
| 1777729003 | 17.22° C | 78% | 1015.3 hPa | - | - | - | - |
| 1777728096 | 17.78° C | 76% | 1015.2 hPa | - | - | - | - |
| 1777727196 | 18.33° C | 72% | 1015.3 hPa | - | - | - | - |
| 1777726296 | 18.89° C | 71% | 1015.2 hPa | - | - | - | - |
| 1777725396 | 19.44° C | 71% | 1015.1 hPa | - | - | - | - |
| 1777724496 | 18.89° C | 76% | 1015 hPa | - | - | - | - |
* Rain since midnight (hover to see other rain measurements)
** Current wind speed in m/s (hover to see current wind gust speed)